| time (UTC) | temp F | wind direction | speed knots | gust knots | rain 1hr in | rain 24hr in | rain mn in | humidity % | barometer mb |
| 20260506221513 | 81 | 132 | 7.0 | 8.7 | 0.00 | 0.00 | 0.00 | 90 | 1008.7 |
| 20260506220113 | 81 | 132 | 5.2 | 7.8 | 0.00 | 0.00 | 0.00 | 90 | 1008.7 |
| 20260506214511 | 81 | 131 | 5.2 | 8.7 | 0.00 | 0.00 | 0.00 | 90 | 1008.9 |
| 20260506213013 | 81 | 131 | 5.2 | 7.0 | 0.00 | 0.00 | 0.00 | 89 | 1008.9 |
| 20260506211509 | 81 | 134 | 6.1 | 7.8 | 0.00 | 0.00 | 0.00 | 89 | 1008.9 |
| 20260506210008 | 81 | 126 | 5.2 | 7.8 | 0.00 | 0.00 | 0.00 | 89 | 1009.0 |
| 20260506204508 | 81 | 128 | 4.3 | 7.0 | 0.00 | 0.00 | 0.00 | 89 | 1009.1 |
| 20260506203006 | 82 | 120 | 2.6 | 6.1 | 0.00 | 0.00 | 0.00 | 89 | 1009.3 |
| 20260506201508 | 81 | 115 | 3.5 | 7.0 | 0.00 | 0.00 | 0.00 | 90 | 1009.6 |
| 20260506200002 | 80 | 139 | 7.0 | 9.6 | 0.00 | 0.00 | 0.00 | 90 | 1009.7 |
| 20260506194502 | 80 | 116 | 2.6 | 6.1 | 0.00 | 0.00 | 0.00 | 90 | 1009.8 |
| 20260506193001 | 81 | 94 | 2.6 | 6.1 | 0.00 | 0.00 | 0.00 | 90 | 1009.9 |
| 20260506191601 | 81 | 80 | 2.6 | 7.8 | 0.00 | 0.00 | 0.00 | 90 | 1010.1 |
| 20260506190100 | 81 | 90 | 5.2 | 7.8 | 0.00 | 0.00 | 0.00 | 89 | 1010.2 |
| 20260506184558 | 82 | 81 | 2.6 | 6.1 | 0.00 | 0.00 | 0.00 | 90 | 1010.2 |
| 20260506183057 | 82 | 84 | 3.5 | 5.2 | 0.00 | 0.00 | 0.00 | 90 | 1010.3 |
| 20260506181554 | 81 | 88 | 3.5 | 6.1 | 0.00 | 0.00 | 0.00 | 92 | 1010.4 |
| 20260506180100 | 80 | 107 | 1.7 | 3.5 | 0.00 | 0.00 | 0.00 | 93 | 1010.4 |
| 20260506174547 | 79 | 134 | 4.3 | 7.0 | 0.00 | 0.00 | 0.00 | 93 | 1010.7 |
| 20260506173053 | 79 | 159 | 6.1 | 8.7 | 0.00 | 0.00 | 0.00 | 93 | 1010.8 |
| 20260506171552 | 79 | 163 | 5.2 | 10.4 | 0.00 | 0.00 | 0.00 | 93 | 1010.8 |
| 20260506170044 | 79 | 165 | 7.8 | 9.6 | 0.00 | 0.00 | 0.00 | 93 | 1010.5 |
| 20260506164543 | 79 | 161 | 5.2 | 7.8 | 0.00 | 0.00 | 0.00 | 92 | 1010.6 |
| 20260506163047 | 79 | 171 | 6.1 | 12.2 | 0.00 | 0.00 | 0.00 | 92 | 1010.5 |
| 20260506161552 | 79 | 163 | 7.0 | 8.7 | 0.00 | 0.00 | 0.00 | 92 | 1010.4 |
| 20260506160039 | 79 | 155 | 7.0 | 10.4 | 0.00 | 0.00 | 0.00 | 91 | 1010.0 |
| 20260506154538 | 79 | 153 | 8.7 | 13.9 | 0.00 | 0.00 | 0.00 | 90 | 1009.9 |
| 20260506153038 | 79 | 175 | 10.4 | 13.9 | 0.00 | 0.00 | 0.00 | 91 | 1009.8 |
| 20260506151534 | 79 | 166 | 8.7 | 16.5 | 0.00 | 0.00 | 0.00 | 91 | 1009.4 |
| 20260506150034 | 79 | 175 | 9.6 | 11.3 | 0.00 | 0.00 | 0.00 | 91 | 1009.5 |
| 20260506144531 | 79 | 128 | 8.7 | 14.8 | 0.00 | 0.00 | 0.00 | 91 | 1009.3 |
| 20260506143030 | 79 | 150 | 7.8 | 13.0 | 0.00 | 0.00 | 0.00 | 91 | 1009.5 |
| 20260506141530 | 79 | 140 | 7.8 | 12.2 | 0.00 | 0.00 | 0.00 | 92 | 1009.5 |
| 20260506140029 | 79 | 169 | 6.1 | 8.7 | 0.00 | 0.00 | 0.00 | 92 | 1009.6 |
| 20260506134602 | 79 | 148 | 7.0 | 10.4 | 0.00 | 0.00 | 0.00 | 92 | 1009.4 |
| 20260506133028 | 78 | 154 | 6.1 | 10.4 | 0.00 | 0.00 | 0.00 | 92 | 1009.4 |
| 20260506131528 | 78 | 148 | 6.1 | 8.7 | 0.00 | 0.00 | 0.00 | 92 | 1009.3 |
| 20260506130026 | 78 | 142 | 7.0 | 9.6 | 0.00 | 0.00 | 0.00 | 92 | 1009.4 |
| 20260506124525 | 78 | 130 | 7.8 | 10.4 | 0.00 | 0.00 | 0.00 | 92 | 1009.2 |
| 20260506123025 | 78 | 135 | 7.0 | 8.7 | 0.00 | 0.00 | 0.00 | 92 | 1009.1 |
| 20260506121524 | 78 | 135 | 5.2 | 7.0 | 0.00 | 0.00 | 0.00 | 92 | 1009.2 |
| 20260506120023 | 78 | 131 | 7.0 | 8.7 | 0.00 | 0.00 | 0.00 | 92 | 1008.9 |
| 20260506114532 | 78 | 134 | 5.2 | 8.7 | 0.00 | 0.00 | 0.00 | 92 | 1008.9 |
| 20260506113024 | 78 | 130 | 6.1 | 7.8 | 0.00 | 0.00 | 0.00 | 91 | 1008.8 |
| 20260506111520 | 78 | 130 | 3.5 | 6.1 | 0.00 | 0.00 | 0.00 | 91 | 1008.9 |
| 20260506110020 | 78 | 130 | 4.3 | 7.0 | 0.00 | 0.00 | 0.00 | 91 | 1008.9 |
| 20260506104520 | 78 | 141 | 4.3 | 6.1 | 0.00 | 0.00 | 0.00 | 91 | 1008.8 |
| 20260506103025 | 78 | 144 | 4.3 | 6.1 | 0.00 | 0.00 | 0.00 | 91 | 1008.9 |
| 20260506101518 | 78 | 150 | 3.5 | 7.0 | 0.00 | 0.00 | 0.00 | 90 | 1008.9 |
| 20260506100029 | 78 | 155 | 3.5 | 7.0 | 0.00 | 0.00 | 0.00 | 90 | 1008.9 |
| 20260506094518 | 78 | 148 | 6.1 | 9.6 | 0.00 | 0.00 | 0.00 | 90 | 1008.7 |
| 20260506093016 | 78 | 154 | 4.3 | 7.8 | 0.00 | 0.00 | 0.00 | 90 | 1008.6 |
| 20260506091515 | 78 | 156 | 5.2 | 10.4 | 0.00 | 0.00 | 0.00 | 90 | 1008.6 |
| 20260506090014 | 78 | 149 | 5.2 | 10.4 | 0.00 | 0.00 | 0.00 | 90 | 1008.4 |
| 20260506084514 | 78 | 159 | 7.0 | 13.0 | 0.00 | 0.00 | 0.00 | 90 | 1008.3 |
| 20260506083012 | 78 | 161 | 6.1 | 9.6 | 0.00 | 0.00 | 0.00 | 90 | 1008.6 |
| 20260506081519 | 78 | 137 | 5.2 | 8.7 | 0.00 | 0.00 | 0.00 | 91 | 1008.6 |
| 20260506073007 | 79 | 158 | 8.7 | 13.9 | 0.00 | 0.00 | 0.00 | 89 | 1008.7 |
| 20260506071509 | 79 | 164 | 11.3 | 16.5 | 0.00 | 0.00 | 0.00 | 90 | 1008.9 |
| 20260506061559 | 79 | 144 | 8.7 | 12.2 | 0.00 | 0.00 | 0.00 | 90 | 1009.5 |
| 20260506044550 | 79 | 146 | 8.7 | 14.8 | 0.00 | 0.00 | 0.00 | 90 | 1009.6 |
| 20260506043049 | 79 | 144 | 10.4 | 13.9 | 0.00 | 0.00 | 0.00 | 90 | 1009.4 |
| 20260506041549 | 79 | 153 | 9.6 | 18.2 | 0.00 | 0.00 | 0.00 | 90 | 1009.5 |
| 20260506040049 | 79 | 144 | 13.0 | 17.4 | 0.00 | 0.00 | 0.00 | 90 | 1009.2 |
| 20260506034551 | 79 | 142 | 13.9 | 18.2 | 0.00 | 0.00 | 0.00 | 90 | 1009.3 |
| 20260506033047 | 79 | 163 | 13.0 | 17.4 | 0.00 | 0.00 | 0.00 | 90 | 1009.0 |
| 20260506031547 | 79 | 141 | 12.2 | 18.2 | 0.00 | 0.00 | 0.00 | 90 | 1008.8 |
| 20260506030046 | 79 | 159 | 13.0 | 18.2 | 0.00 | 0.00 | 0.00 | 90 | 1008.5 |
| 20260506024552 | 79 | 163 | 12.2 | 17.4 | 0.00 | 0.00 | 0.00 | 90 | 1008.2 |
| 20260506023045 | 79 | 132 | 13.9 | 18.2 | 0.00 | 0.00 | 0.00 | 89 | 1008.3 |
| 20260506021544 | 79 | 159 | 13.9 | 17.4 | 0.00 | 0.00 | 0.00 | 89 | 1008.1 |
| 20260506020144 | 79 | 167 | 11.3 | 17.4 | 0.00 | 0.00 | 0.00 | 89 | 1008.1 |
| 20260506014544 | 79 | 175 | 14.8 | 18.2 | 0.00 | 0.00 | 0.00 | 89 | 1007.9 |
| 20260506013043 | 79 | 156 | 14.8 | 18.2 | 0.00 | 0.00 | 0.00 | 88 | 1007.7 |
| 20260506011604 | 79 | 157 | 13.9 | 18.2 | 0.00 | 0.00 | 0.00 | 88 | 1007.5 |
| 20260506010043 | 79 | 161 | 13.9 | 19.1 | 0.00 | 0.00 | 0.00 | 88 | 1007.1 |
| 20260506004557 | 79 | 151 | 13.9 | 18.2 | 0.00 | 0.00 | 0.00 | 89 | 1007.0 |
| 20260506003041 | 79 | 165 | 11.3 | 20.9 | 0.00 | 0.00 | 0.00 | 88 | 1006.9 |
| 20260506001544 | 80 | 145 | 13.0 | 20.0 | 0.00 | 0.00 | 0.00 | 88 | 1007.0 |
| 20260506000109 | 80 | 140 | 13.0 | 17.4 | 0.00 | 0.00 | 0.00 | 87 | 1007.0 |
| 20260505234639 | 80 | 157 | 12.2 | 19.1 | 0.00 | 0.00 | 0.00 | 87 | 1007.0 |
| 20260505233038 | 80 | 147 | 13.9 | 19.1 | 0.00 | 0.00 | 0.00 | 86 | 1007.0 |
| 20260505231537 | 80 | 172 | 12.2 | 16.5 | 0.00 | 0.00 | 0.00 | 86 | 1007.0 |
| 20260505230136 | 81 | 158 | 13.9 | 22.6 | 0.00 | 0.00 | 0.00 | 85 | 1006.9 |
| 20260505224539 | 81 | 155 | 16.5 | 20.9 | 0.00 | 0.00 | 0.00 | 84 | 1006.9 |
| 20260505223038 | 81 | 167 | 16.5 | 21.7 | 0.00 | 0.00 | 0.00 | 84 | 1006.9 |